Broad Creek Laurel DE USA current weather conditions

sailwx.info

Wind from 150 at 1 knots gusting 1

Air temperature 13.5° C
Dewpoint 12.5° C

Last reported at 2020-Sep-24 06:05 UTC.
Time now 2020-Sep-24 07:03 UTC

Location: N 38°32' W 075°36'.
View on Google Maps.

See reports from other nearby stations

  
Tides and Currents Weather Stations Pressure Air Temp Water Temp Dewpoint Dewpoint Depression Visibility Wind Speed Wind Dir Waves Ship Positions
date/time (UTC)wind fromknots sea level pressurealtimeterstation pressurevisibilityair tempwater tempwave heightnotes
2020-Sep-24 06:05 150 1 gusting 1 13.5
2020-Sep-24 06:00 158 1 gusting 2 13.4
2020-Sep-24 05:55 162 1 gusting 1 13.3
2020-Sep-24 05:50 154 2 gusting 2 12.9
2020-Sep-24 05:45 160 0 gusting 1 12.2
2020-Sep-24 05:40 12.2
2020-Sep-24 05:35 165 0 gusting 1 12.5
2020-Sep-24 05:30 167 1 gusting 2 12.5
2020-Sep-24 05:25 159 1 gusting 2 12.7
2020-Sep-24 05:20 159 2 gusting 2 12.8
2020-Sep-24 05:15 168 1 gusting 2 13.0
2020-Sep-24 05:10 153 0 gusting 1 13.1
2020-Sep-24 05:05 150 0 gusting 1 13.2
2020-Sep-24 05:00 156 2 gusting 2 13.3
2020-Sep-24 04:55 158 2 gusting 2 12.9
2020-Sep-24 04:50 155 1 gusting 2 13.0
2020-Sep-24 04:45 155 1 gusting 1 13.2
2020-Sep-24 04:40 155 1 gusting 1 13.0
2020-Sep-24 04:35 155 1 gusting 1 13.1
2020-Sep-24 04:30 155 1 gusting 1 13.2
2020-Sep-24 04:25 156 1 gusting 1 13.4
2020-Sep-24 04:20 161 0 gusting 1 13.6
2020-Sep-24 04:15 161 1 gusting 2 13.3
2020-Sep-24 04:10 153 1 gusting 2 13.3
2020-Sep-24 04:05 221 0 gusting 0 14.0
2020-Sep-24 04:00 221 0 gusting 0 14.3
2020-Sep-24 03:55 198 1 gusting 2 14.4
2020-Sep-24 03:50 186 2 gusting 2 14.6
2020-Sep-24 03:45 178 0 gusting 1 15.0
2020-Sep-24 03:40 178 0 gusting 1 15.2
2020-Sep-24 03:35 180 2 gusting 3 15.0
2020-Sep-24 03:30 178 3 gusting 3 15.0
2020-Sep-24 03:25 173 1 gusting 3 15.1
2020-Sep-24 03:20 191 1 gusting 1 15.0
2020-Sep-24 03:15 186 0 gusting 1 14.9
2020-Sep-24 03:10 179 0 gusting 0 14.8
2020-Sep-24 03:05 179 0 gusting 0 15.0
2020-Sep-24 03:00 186 1 gusting 2 15.2
2020-Sep-24 02:55 194 1 gusting 2 15.3
2020-Sep-24 02:50 239 0 gusting 1 15.4
2020-Sep-24 02:45 209 0 gusting 1 15.5
2020-Sep-24 02:40 177 1 gusting 1 15.6
2020-Sep-24 02:35 168 1 gusting 1 15.4
2020-Sep-24 02:30 156 1 gusting 1 15.4
2020-Sep-24 02:25 161 1 gusting 1 15.5
2020-Sep-24 02:20 207 0 gusting 1 15.5
2020-Sep-24 02:15 212 0 gusting 1 15.1
2020-Sep-24 02:10 212 0 gusting 0 14.9
2020-Sep-24 02:05 186 0 gusting 0 14.8
2020-Sep-24 02:00 177 0 gusting 1 14.9
2020-Sep-24 01:55 229 0 gusting 0 14.9
2020-Sep-24 01:50 15.1
2020-Sep-24 01:45 207 0 gusting 1 15.5
2020-Sep-24 01:40 179 1 gusting 1 15.9
2020-Sep-24 01:35 175 1 gusting 1 16.2
2020-Sep-24 01:30 215 1 gusting 1 16.4
2020-Sep-24 01:25 237 0 gusting 1 16.5
2020-Sep-24 01:20 236 0 gusting 1 16.4
2020-Sep-24 01:15 212 0 gusting 1 16.1
2020-Sep-24 01:10 16.2
2020-Sep-24 01:05 207 0 gusting 0 16.5
2020-Sep-24 01:00 193 1 gusting 2 16.6
2020-Sep-24 00:55 202 1 gusting 2 16.8
2020-Sep-24 00:50 215 1 gusting 2 16.9
2020-Sep-24 00:45 208 0 gusting 1 16.8
2020-Sep-24 00:40 196 0 gusting 1 16.8
2020-Sep-24 00:35 208 0 gusting 1 16.8
2020-Sep-24 00:30 204 1 gusting 2 16.7
2020-Sep-24 00:25 186 1 gusting 2 16.9
2020-Sep-24 00:20 179 1 gusting 1 17.4
2020-Sep-24 00:15 210 1 gusting 2 17.5
2020-Sep-24 00:10 232 2 gusting 2 17.5
2020-Sep-24 00:05 237 2 gusting 2 17.4
2020-Sep-24 00:00 225 1 gusting 2 17.3
2020-Sep-23 23:55 215 1 gusting 1 17.2
2020-Sep-23 23:50 227 1 gusting 2 17.1
2020-Sep-23 23:45 213 1 gusting 2 17.2
2020-Sep-23 23:40 203 0 gusting 2 17.4
2020-Sep-23 23:35 200 0 gusting 1 17.8
2020-Sep-23 23:30 189 1 gusting 2 17.8
2020-Sep-23 23:25 178 1 gusting 1 18.1
2020-Sep-23 23:20 182 1 gusting 1 18.7
2020-Sep-23 23:15 189 1 gusting 1 19.1
2020-Sep-23 23:10 199 1 gusting 2 19.4
2020-Sep-23 23:05 221 2 gusting 2 19.7
2020-Sep-23 23:00 215 2 gusting 3 19.9
2020-Sep-23 22:55 220 2 gusting 2 20.0
2020-Sep-23 22:50 211 2 gusting 3 20.5
2020-Sep-23 22:45 210 2 gusting 3 20.8
2020-Sep-23 22:40 212 2 gusting 4 21.1
2020-Sep-23 22:35 213 2 gusting 3 21.4
2020-Sep-23 22:30 220 3 gusting 5 21.7
2020-Sep-23 22:25 225 3 gusting 5 22.0
2020-Sep-23 22:20 229 4 gusting 7 22.3
2020-Sep-23 22:15 222 4 gusting 6 22.7
2020-Sep-23 22:10 222 4 gusting 6 23.2
2020-Sep-23 22:05 236 5 gusting 8 23.3
2020-Sep-23 22:00 240 6 gusting 9 23.5
2020-Sep-23 21:55 243 7 gusting 10 24.1
2020-Sep-23 21:50 274 7 gusting 11 24.2
2020-Sep-23 21:45 268 7 gusting 11 24.3
2020-Sep-23 21:40 270 7 gusting 10 24.3
2020-Sep-23 21:35 265 7 gusting 10 24.3
2020-Sep-23 21:30 269 7 gusting 11 24.5
2020-Sep-23 21:25 275 7 gusting 10 24.4
2020-Sep-23 21:20 281 8 gusting 12 24.7
2020-Sep-23 21:15 274 5 gusting 7 24.8
2020-Sep-23 21:10 269 8 gusting 11 24.6
2020-Sep-23 21:05 266 9 gusting 12 24.6
2020-Sep-23 21:00 269 8 gusting 12 24.7
2020-Sep-23 20:55 264 9 gusting 14 24.9
2020-Sep-23 20:50 273 7 gusting 12 25.0
2020-Sep-23 20:45 257 7 gusting 12 25.0
2020-Sep-23 20:40 266 7 gusting 11 24.9
2020-Sep-23 20:35 264 8 gusting 11 24.8
2020-Sep-23 20:30 261 8 gusting 12 24.9
2020-Sep-23 20:25 263 7 gusting 12 24.7
2020-Sep-23 20:20 268 8 gusting 11 24.8
2020-Sep-23 20:15 280 7 gusting 11 24.9
2020-Sep-23 20:10 271 8 gusting 12 24.9
2020-Sep-23 20:05 286 7 gusting 11 25.0
2020-Sep-23 20:00 277 7 gusting 9 25.1
2020-Sep-23 19:55 249 7 gusting 10 24.8
2020-Sep-23 19:50 252 9 gusting 12 24.9
2020-Sep-23 19:45 239 7 gusting 11 24.9
2020-Sep-23 19:40 251 8 gusting 12 24.7
2020-Sep-23 19:35 269 8 gusting 12 24.9
2020-Sep-23 19:30 259 6 gusting 12 25.0
2020-Sep-23 19:25 288 6 gusting 9 25.3
2020-Sep-23 19:20 258 6 gusting 10 25.1
2020-Sep-23 19:15 280 7 gusting 11 25.2
2020-Sep-23 19:10 282 7 gusting 9 25.3
2020-Sep-23 19:05 271 6 gusting 11 25.1
2020-Sep-23 19:00 280 6 gusting 9 25.2
2020-Sep-23 18:55 239 7 gusting 11 25.1
2020-Sep-23 18:50 233 6 gusting 10 25.1
2020-Sep-23 18:45 251 5 gusting 8 24.9
2020-Sep-23 18:40 296 4 gusting 7 25.0
2020-Sep-23 18:35 303 5 gusting 8 25.0
2020-Sep-23 18:30 289 7 gusting 11 25.0
2020-Sep-23 18:25 304 7 gusting 10 24.9
2020-Sep-23 18:20 287 7 gusting 11 25.1
2020-Sep-23 18:15 302 7 gusting 10 24.8
2020-Sep-23 18:10 284 7 gusting 11 24.7
2020-Sep-23 18:05 291 7 gusting 10 24.8
2020-Sep-23 18:00 293 5 gusting 9 24.5
2020-Sep-23 17:55 272 7 gusting 10 24.6
2020-Sep-23 17:50 273 8 gusting 12 24.5
2020-Sep-23 17:45 269 8 gusting 12 24.5
2020-Sep-23 17:40 276 7 gusting 10 24.7
2020-Sep-23 17:35 274 5 gusting 9 24.2
2020-Sep-23 17:30 283 6 gusting 11 24.6
2020-Sep-23 17:25 293 7 gusting 11 24.5
2020-Sep-23 17:20 294 6 gusting 10 24.3
2020-Sep-23 17:15 308 7 gusting 10 24.0
2020-Sep-23 17:10 288 8 gusting 11 24.1
2020-Sep-23 17:05 283 6 gusting 11 24.1
2020-Sep-23 17:00 301 6 gusting 9 24.1
2020-Sep-23 16:55 266 5 gusting 8 23.5
2020-Sep-23 16:50 283 7 gusting 10 23.8
2020-Sep-23 16:45 281 5 gusting 10 23.7
2020-Sep-23 16:40 302 6 gusting 10 23.7
2020-Sep-23 16:35 277 6 gusting 11 23.5
2020-Sep-23 16:30 278 7 gusting 11 23.6
2020-Sep-23 16:25 284 7 gusting 12 23.5
2020-Sep-23 16:20 266 6 gusting 10 23.6
2020-Sep-23 16:15 305 6 gusting 11 23.6
2020-Sep-23 16:10 325 3 gusting 7 22.9
2020-Sep-23 16:05 327 7 gusting 10 23.1
2020-Sep-23 16:00 312 5 gusting 9 23.1
2020-Sep-23 15:55 309 6 gusting 11 23.0
2020-Sep-23 15:50 303 5 gusting 8 22.6
2020-Sep-23 15:45 302 5 gusting 9 22.6
2020-Sep-23 15:40 286 6 gusting 9 22.3
2020-Sep-23 15:35 288 6 gusting 10 22.2
2020-Sep-23 15:30 289 6 gusting 10 22.3
2020-Sep-23 15:25 303 5 gusting 8 22.1
2020-Sep-23 15:20 301 5 gusting 8 21.9
2020-Sep-23 15:15 320 5 gusting 9 21.5
2020-Sep-23 15:10 318 6 gusting 9 21.4
2020-Sep-23 15:05 308 5 gusting 8 21.4
2020-Sep-23 15:00 296 6 gusting 9 21.3
2020-Sep-23 14:55 308 6 gusting 8 21.1
2020-Sep-23 14:50 308 5 gusting 7 20.9
2020-Sep-23 14:45 305 6 gusting 10 20.9
2020-Sep-23 14:40 315 6 gusting 8 20.9
2020-Sep-23 14:35 308 6 gusting 10 20.9
2020-Sep-23 14:30 312 6 gusting 9 20.5
2020-Sep-23 14:25 306 6 gusting 10 20.5
2020-Sep-23 14:20 319 6 gusting 9 20.2
2020-Sep-23 14:15 297 6 gusting 10 20.0
2020-Sep-23 14:10 312 6 gusting 9 19.8
2020-Sep-23 14:05 310 5 gusting 8 19.8
2020-Sep-23 14:00 310 6 gusting 9 19.3
2020-Sep-23 13:55 308 5 gusting 9 19.1
2020-Sep-23 13:50 297 5 gusting 8 18.9
2020-Sep-23 13:45 301 5 gusting 7 18.6
2020-Sep-23 13:40 311 5 gusting 7 18.3
2020-Sep-23 13:35 304 5 gusting 8 17.9
2020-Sep-23 13:30 304 5 gusting 7 17.8
2020-Sep-23 13:25 303 4 gusting 7 17.6
2020-Sep-23 13:20 308 4 gusting 6 17.2
2020-Sep-23 13:15 317 4 gusting 6 17.0
2020-Sep-23 13:10 312 4 gusting 7 16.7
2020-Sep-23 13:05 315 4 gusting 7 16.4
2020-Sep-23 13:00 317 4 gusting 6 16.1
2020-Sep-23 12:55 300 3 gusting 6 15.8
2020-Sep-23 12:50 293 3 gusting 5 15.4
2020-Sep-23 12:45 285 1 gusting 3 14.9
2020-Sep-23 12:40 266 1 gusting 2 14.5
2020-Sep-23 12:35 259 1 gusting 2 14.2
2020-Sep-23 12:30 240 1 gusting 2 13.9
2020-Sep-23 12:25 225 1 gusting 2 13.5
2020-Sep-23 12:20 221 1 gusting 1 13.2
2020-Sep-23 12:15 213 1 gusting 1 13.0
2020-Sep-23 12:10 200 0 gusting 1 12.8
2020-Sep-23 12:05 199 0 gusting 1 12.2
2020-Sep-23 12:00 207 0 gusting 1 11.5
2020-Sep-23 11:55 211 0 gusting 1 11.0
2020-Sep-23 11:50 211 0 gusting 0 10.4
2020-Sep-23 11:45 211 0 gusting 0 9.9
2020-Sep-23 11:40 211 0 gusting 0 9.3
2020-Sep-23 11:35 211 0 gusting 0 8.8
2020-Sep-23 11:30 8.7
2020-Sep-23 11:25 211 0 gusting 0 8.7
2020-Sep-23 11:20 211 0 gusting 0 8.8
2020-Sep-23 11:15 211 0 gusting 0 9.0
2020-Sep-23 11:10 214 0 gusting 1 8.8
2020-Sep-23 11:05 229 0 gusting 0 8.6
2020-Sep-23 11:00 8.7
2020-Sep-23 10:55 219 0 gusting 1 8.9
2020-Sep-23 10:50 191 0 gusting 1 8.9
2020-Sep-23 10:45 210 0 gusting 0 9.1
2020-Sep-23 10:40 245 0 gusting 1 9.3
2020-Sep-23 10:35 242 1 gusting 1 9.4
2020-Sep-23 10:30 233 1 gusting 2 9.5
2020-Sep-23 10:25 233 2 gusting 2 9.6
2020-Sep-23 10:20 227 1 gusting 2 9.2
2020-Sep-23 10:15 242 1 gusting 1 9.3
2020-Sep-23 10:10 246 1 gusting 1 9.4
2020-Sep-23 10:05 262 1 gusting 2 9.3
2020-Sep-23 10:00 234 0 gusting 2 8.9
2020-Sep-23 09:55 8.7
2020-Sep-23 09:50 8.7
2020-Sep-23 09:45 8.8
2020-Sep-23 09:40 8.6
2020-Sep-23 09:35 8.7
2020-Sep-23 09:30 181 0 gusting 0 8.6
2020-Sep-23 09:25 178 1 gusting 1 8.7
2020-Sep-23 09:20 161 1 gusting 1 8.8
2020-Sep-23 09:15 164 0 gusting 1 8.7
2020-Sep-23 09:10 258 0 gusting 0 8.9
2020-Sep-23 09:05 258 1 gusting 1 9.2
2020-Sep-23 09:00 255 1 gusting 1 9.3
2020-Sep-23 08:55 224 1 gusting 1 9.6
2020-Sep-23 08:50 202 1 gusting 1 9.7
2020-Sep-23 08:45 198 1 gusting 1 9.7
2020-Sep-23 08:40 207 1 gusting 1 9.8
2020-Sep-23 08:35 225 1 gusting 1 10.1
2020-Sep-23 08:30 231 1 gusting 2 10.1
2020-Sep-23 08:25 233 1 gusting 2 9.7
2020-Sep-23 08:20 181 0 gusting 0 9.7
2020-Sep-23 08:15 186 0 gusting 1 9.6
2020-Sep-23 08:10 208 1 gusting 1 9.7
2020-Sep-23 08:05 199 1 gusting 1 9.9
2020-Sep-23 08:00 202 1 gusting 1 10.4
2020-Sep-23 07:55 255 1 gusting 1 10.9
2020-Sep-23 07:50 266 0 gusting 0 11.4
2020-Sep-23 07:45 265 1 gusting 1 11.9
2020-Sep-23 07:40 260 1 gusting 1 12.0
2020-Sep-23 07:35 244 1 gusting 2 12.0
2020-Sep-23 07:30 238 1 gusting 2 12.0
2020-Sep-23 07:25 236 2 gusting 2 12.0
2020-Sep-23 07:20 242 1 gusting 2 12.0
2020-Sep-23 07:15 243 1 gusting 1 11.9
2020-Sep-23 07:10 230 1 gusting 1 11.8
2020-Sep-23 07:05 224 1 gusting 2 11.8
2020-Sep-23 07:00 236 1 gusting 1 11.6
2020-Sep-23 06:55 232 1 gusting 1 11.4
2020-Sep-23 06:50 216 0 gusting 1 11.3
2020-Sep-23 06:45 210 0 gusting 1 11.5
2020-Sep-23 06:40 225 2 gusting 2 11.8
2020-Sep-23 06:35 230 1 gusting 2 11.6
2020-Sep-23 06:30 225 0 gusting 1 11.3
2020-Sep-23 06:25 227 0 gusting 0 11.4
2020-Sep-23 06:20 238 0 gusting 1 11.7
2020-Sep-23 06:15 226 1 gusting 1 11.9
2020-Sep-23 06:10 238 1 gusting 1 12.2
2020-Sep-23 06:05 243 1 gusting 2 12.4
2020-Sep-23 06:00 242 2 gusting 3 12.4
2020-Sep-23 05:55 246 2 gusting 3 12.4
2020-Sep-23 05:50 241 2 gusting 3 12.5
2020-Sep-23 05:45 251 2 gusting 3 12.5
2020-Sep-23 05:40 261 1 gusting 3 12.5
2020-Sep-23 05:35 259 1 gusting 2 12.4
2020-Sep-23 05:30 264 2 gusting 3 12.4
2020-Sep-23 05:25 275 1 gusting 2 12.6
2020-Sep-23 05:20 262 2 gusting 3 12.7
2020-Sep-23 05:15 257 2 gusting 3 12.6
2020-Sep-23 05:10 254 2 gusting 3 12.6
2020-Sep-23 05:05 251 2 gusting 3 12.6
2020-Sep-23 05:00 256 2 gusting 2 12.5
2020-Sep-23 04:55 258 2 gusting 3 12.6
2020-Sep-23 04:50 256 1 gusting 2 12.4
2020-Sep-23 04:45 256 2 gusting 3 12.7
2020-Sep-23 04:40 254 2 gusting 4 12.5
2020-Sep-23 04:35 255 2 gusting 3 11.9
2020-Sep-23 04:30 245 2 gusting 3 11.3
2020-Sep-23 04:25 224 1 gusting 2 10.6
2020-Sep-23 04:20 215 1 gusting 2 10.4
2020-Sep-23 04:15 206 1 gusting 1 10.2
2020-Sep-23 04:10 200 0 gusting 1 10.1
2020-Sep-23 04:05 182 0 gusting 1 10.2
2020-Sep-23 04:00 166 0 gusting 1 10.4
2020-Sep-23 03:55 196 0 gusting 1 10.6
2020-Sep-23 03:50 223 0 gusting 1 10.7
2020-Sep-23 03:45 222 0 gusting 1 11.0
2020-Sep-23 03:40 208 0 gusting 1 11.0
2020-Sep-23 03:35 195 0 gusting 1 10.8
2020-Sep-23 03:30 167 0 gusting 1 10.7
2020-Sep-23 03:25 125 1 gusting 1 10.7
2020-Sep-23 03:20 114 0 gusting 1 10.7
2020-Sep-23 03:15 217 0 gusting 0 11.1
2020-Sep-23 03:10 219 1 gusting 2 11.7
2020-Sep-23 03:05 221 2 gusting 3 12.0
2020-Sep-23 03:00 231 3 gusting 4 12.0
2020-Sep-23 02:55 234 3 gusting 3 12.0
2020-Sep-23 02:50 230 3 gusting 4 11.8
2020-Sep-23 02:45 229 2 gusting 3 11.7
2020-Sep-23 02:40 230 2 gusting 3 11.6
2020-Sep-23 02:35 232 2 gusting 3 11.6
2020-Sep-23 02:30 233 1 gusting 1 11.9
2020-Sep-23 02:25 230 2 gusting 2 12.3
2020-Sep-23 02:20 232 2 gusting 2 12.5
2020-Sep-23 02:15 233 2 gusting 2 12.3
2020-Sep-23 02:10 231 2 gusting 3 12.2
2020-Sep-23 02:05 228 2 gusting 3 12.3
2020-Sep-23 02:00 226 2 gusting 3 12.3
2020-Sep-23 01:55 220 2 gusting 3 12.2
2020-Sep-23 01:50 226 2 gusting 3 12.1
2020-Sep-23 01:45 222 1 gusting 2 12.0
2020-Sep-23 01:40 214 1 gusting 2 12.4
2020-Sep-23 01:35 224 2 gusting 3 12.4
2020-Sep-23 01:30 229 2 gusting 3 12.3
2020-Sep-23 01:25 237 2 gusting 3 12.4
2020-Sep-23 01:20 240 2 gusting 3 12.9
2020-Sep-23 01:15 243 3 gusting 4 12.9
2020-Sep-23 01:10 238 4 gusting 4 13.0
2020-Sep-23 01:05 235 3 gusting 4 13.0
2020-Sep-23 01:00 234 3 gusting 4 12.8
2020-Sep-23 00:55 238 3 gusting 4 13.1
2020-Sep-23 00:50 243 3 gusting 4 13.5
2020-Sep-23 00:45 246 3 gusting 4 13.2
2020-Sep-23 00:40 241 3 gusting 3 13.1
2020-Sep-23 00:35 241 3 gusting 4 13.5
2020-Sep-23 00:30 242 3 gusting 4 13.7
2020-Sep-23 00:25 244 3 gusting 4 14.1
2020-Sep-23 00:20 249 3 gusting 4 14.5
2020-Sep-23 00:15 250 3 gusting 5 14.4
2020-Sep-23 00:10 250 3 gusting 4 14.0
2020-Sep-23 00:05 247 2 gusting 3 13.8
2020-Sep-23 00:00 235 3 gusting 3 14.1
2020-Sep-22 23:55 231 3 gusting 3 14.5
2020-Sep-22 23:50 233 2 gusting 3 14.6
2020-Sep-22 23:45 243 3 gusting 4 15.2
2020-Sep-22 23:40 246 3 gusting 4 15.1
2020-Sep-22 23:35 245 3 gusting 4 15.0
2020-Sep-22 23:30 243 3 gusting 4 15.2
2020-Sep-22 23:25 242 3 gusting 4 15.5
2020-Sep-22 23:20 239 3 gusting 4 15.9
2020-Sep-22 23:15 247 3 gusting 4 16.2
2020-Sep-22 23:10 250 4 gusting 5 16.5
2020-Sep-22 23:05 251 3 gusting 5 16.8
2020-Sep-22 23:00 256 3 gusting 4 17.0
2020-Sep-22 22:55 261 3 gusting 4 17.2
2020-Sep-22 22:50 263 3 gusting 5 17.6
2020-Sep-22 22:45 259 4 gusting 6 17.8
2020-Sep-22 22:40 258 4 gusting 6 18.2
2020-Sep-22 22:35 256 4 gusting 6 18.4
2020-Sep-22 22:30 260 4 gusting 6 18.8
2020-Sep-22 22:25 272 5 gusting 7 18.9
2020-Sep-22 22:20 276 5 gusting 6 19.1
2020-Sep-22 22:15 279 4 gusting 6 19.3
2020-Sep-22 22:10 275 6 gusting 9 19.5
2020-Sep-22 22:05 278 6 gusting 10 19.6
2020-Sep-22 22:00 277 6 gusting 9 19.7
2020-Sep-22 21:55 286 6 gusting 10 19.8
2020-Sep-22 21:50 277 8 gusting 13 19.8
2020-Sep-22 21:45 279 8 gusting 11 20.0
2020-Sep-22 21:40 284 6 gusting 9 20.1
2020-Sep-22 21:35 277 7 gusting 12 20.1
2020-Sep-22 21:30 280 7 gusting 12 20.3
2020-Sep-22 21:25 278 7 gusting 11 20.2
2020-Sep-22 21:20 283 8 gusting 11 20.3
2020-Sep-22 21:15 287 7 gusting 10 20.3
2020-Sep-22 21:10 293 7 gusting 11 20.3
2020-Sep-22 21:05 279 8 gusting 11 20.3
2020-Sep-22 21:00 288 7 gusting 11 20.5
2020-Sep-22 20:55 308 7 gusting 12 20.8
2020-Sep-22 20:50 281 6 gusting 9 20.6
2020-Sep-22 20:45 287 8 gusting 12 20.4
2020-Sep-22 20:40 310 8 gusting 14 20.5
2020-Sep-22 20:35 304 8 gusting 10 20.7
2020-Sep-22 20:30 305 8 gusting 13 20.5
2020-Sep-22 20:25 296 8 gusting 11 20.5
2020-Sep-22 20:20 289 7 gusting 11 20.6
2020-Sep-22 20:15 287 7 gusting 10 20.5
2020-Sep-22 20:10 315 8 gusting 13 20.5
2020-Sep-22 20:05 317 8 gusting 11 20.4
2020-Sep-22 20:00 307 8 gusting 14 20.5
2020-Sep-22 19:55 302 7 gusting 14 20.6
2020-Sep-22 19:50 312 8 gusting 15 20.6
2020-Sep-22 19:45 308 7 gusting 11 20.5
2020-Sep-22 19:40 319 8 gusting 11 20.5
2020-Sep-22 19:35 327 9 gusting 16 20.5
2020-Sep-22 19:30 299 8 gusting 13 20.8
2020-Sep-22 19:25 294 9 gusting 12 20.8
2020-Sep-22 19:20 300 8 gusting 13 20.6
2020-Sep-22 19:15 327 8 gusting 14 20.4
2020-Sep-22 19:10 317 10 gusting 15 20.4
2020-Sep-22 19:05 318 9 gusting 15 20.5
2020-Sep-22 19:00 305 10 gusting 14 20.7
2020-Sep-22 18:55 317 6 gusting 11 20.5
2020-Sep-22 18:50 295 8 gusting 14 20.3
2020-Sep-22 18:45 308 8 gusting 12 20.4
2020-Sep-22 18:40 294 10 gusting 13 20.5
2020-Sep-22 18:35 297 8 gusting 16 20.6
2020-Sep-22 18:30 279 9 gusting 14 20.2
2020-Sep-22 18:25 297 9 gusting 15 20.6
2020-Sep-22 18:20 283 9 gusting 13 20.6
2020-Sep-22 18:15 300 9 gusting 13 20.4
2020-Sep-22 18:10 308 9 gusting 14 20.2
2020-Sep-22 18:05 305 11 gusting 15 20.5
2020-Sep-22 18:00 302 8 gusting 12 20.5
2020-Sep-22 17:55 314 8 gusting 12 20.6
2020-Sep-22 17:50 311 7 gusting 12 20.4
2020-Sep-22 17:45 319 9 gusting 14 19.9
2020-Sep-22 17:40 315 8 gusting 12 20.1
2020-Sep-22 17:35 316 9 gusting 13 20.0
2020-Sep-22 17:30 296 8 gusting 13 19.9
2020-Sep-22 17:25 327 8 gusting 13 20.0
2020-Sep-22 17:20 309 7 gusting 12 19.9
2020-Sep-22 17:15 315 9 gusting 14 20.0
2020-Sep-22 17:10 315 7 gusting 10 20.0
2020-Sep-22 17:05 305 8 gusting 13 19.5
2020-Sep-22 17:00 317 8 gusting 12 19.6
2020-Sep-22 16:55 320 9 gusting 13 19.4
2020-Sep-22 16:50 316 9 gusting 12 19.6
2020-Sep-22 16:45 309 8 gusting 10 19.6
2020-Sep-22 16:40 314 8 gusting 15 19.4
2020-Sep-22 16:35 324 8 gusting 12 19.0
2020-Sep-22 16:30 315 9 gusting 13 19.1
2020-Sep-22 16:25 318 7 gusting 11 19.2
2020-Sep-22 16:20 309 7 gusting 12 19.0
2020-Sep-22 16:15 335 7 gusting 10 18.7
2020-Sep-22 16:10 322 9 gusting 13 19.0
2020-Sep-22 16:05 328 8 gusting 11 18.8
2020-Sep-22 16:00 323 8 gusting 14 19.1
2020-Sep-22 15:55 328 6 gusting 9 18.6
2020-Sep-22 15:50 319 7 gusting 12 18.4
2020-Sep-22 15:45 344 9 gusting 14 18.3
2020-Sep-22 15:40 325 9 gusting 12 18.3
2020-Sep-22 15:35 339 9 gusting 12 17.9
2020-Sep-22 15:30 342 8 gusting 12 17.9
2020-Sep-22 15:25 329 9 gusting 13 17.9
2020-Sep-22 15:20 334 7 gusting 12 18.1
2020-Sep-22 15:15 333 8 gusting 11 17.5
2020-Sep-22 15:10 338 9 gusting 11 17.5
2020-Sep-22 15:05 321 9 gusting 14 17.4
2020-Sep-22 15:00 322 8 gusting 11 17.3
2020-Sep-22 14:55 318 8 gusting 13 17.1
2020-Sep-22 14:50 319 7 gusting 10 17.1
2020-Sep-22 14:45 332 8 gusting 12 16.9
2020-Sep-22 14:40 317 7 gusting 11 16.8
2020-Sep-22 14:35 328 8 gusting 12 16.8
2020-Sep-22 14:30 324 7 gusting 10 16.6
2020-Sep-22 14:25 331 7 gusting 12 16.5
2020-Sep-22 14:20 332 7 gusting 10 16.2
2020-Sep-22 14:15 339 6 gusting 10 16.1
2020-Sep-22 14:10 333 8 gusting 11 15.9
2020-Sep-22 14:05 335 7 gusting 10 15.7
2020-Sep-22 14:00 327 6 gusting 10 15.4
2020-Sep-22 13:55 331 7 gusting 9 15.2
2020-Sep-22 13:50 329 7 gusting 9 15.0
2020-Sep-22 13:45 330 6 gusting 8 14.7
2020-Sep-22 13:40 330 7 gusting 10 14.5
2020-Sep-22 13:35 332 7 gusting 10 14.3
2020-Sep-22 13:30 324 6 gusting 9 13.9
2020-Sep-22 13:25 321 7 gusting 10 13.7
2020-Sep-22 13:20 329 7 gusting 9 13.5
2020-Sep-22 13:15 330 5 gusting 8 13.1
2020-Sep-22 13:10 337 6 gusting 9 12.9
2020-Sep-22 13:05 332 6 gusting 8 12.7
2020-Sep-22 13:00 336 6 gusting 9 12.3
2020-Sep-22 12:55 331 5 gusting 6 12.0
2020-Sep-22 12:50 329 5 gusting 8 11.7
2020-Sep-22 12:45 320 4 gusting 7 11.4
2020-Sep-22 12:40 320 4 gusting 7 11.2
2020-Sep-22 12:35 324 3 gusting 5 10.9
2020-Sep-22 12:30 318 3 gusting 5 10.6
2020-Sep-22 12:25 321 2 gusting 4 10.3
2020-Sep-22 12:20 329 2 gusting 3 10.0
2020-Sep-22 12:15 336 2 gusting 3 9.5
2020-Sep-22 12:10 317 2 gusting 3 9.3
2020-Sep-22 12:05 320 1 gusting 1 8.8
2020-Sep-22 12:00 338 0 gusting 1 8.4
2020-Sep-22 11:55 348 0 gusting 1 8.0
2020-Sep-22 11:50 355 1 gusting 1 7.6
2020-Sep-22 11:45 031 0 gusting 1 7.1
2020-Sep-22 11:40 6.9
2020-Sep-22 11:35 157 0 gusting 1 6.4
2020-Sep-22 11:30 148 1 gusting 1 6.1
2020-Sep-22 11:25 141 0 gusting 1 6.1
2020-Sep-22 11:20 6.0
2020-Sep-22 11:15 345 0 gusting 0 5.5
2020-Sep-22 11:10 032 0 gusting 1 5.0
2020-Sep-22 11:05 302 0 gusting 1 4.8
2020-Sep-22 11:00 306 0 gusting 1 4.9
2020-Sep-22 10:55 297 0 gusting 0 5.1
2020-Sep-22 10:50 250 0 gusting 0 5.3
2020-Sep-22 10:45 233 0 gusting 0 5.4
2020-Sep-22 10:40 224 0 gusting 1 5.5
2020-Sep-22 10:35 225 0 gusting 1 5.6
2020-Sep-22 10:30 162 0 gusting 0 5.6
2020-Sep-22 10:25 161 0 gusting 1 5.7
2020-Sep-22 10:20 188 0 gusting 1 5.7
2020-Sep-22 10:15 199 1 gusting 1 5.6
2020-Sep-22 10:10 217 1 gusting 2 5.6
2020-Sep-22 10:05 262 1 gusting 1 5.9
2020-Sep-22 10:00 339 0 gusting 1 6.4
2020-Sep-22 09:55 348 1 gusting 2 6.5
2020-Sep-22 09:50 335 1 gusting 2 6.7
2020-Sep-22 09:45 323 1 gusting 2 6.8
2020-Sep-22 09:40 315 1 gusting 2 7.0
2020-Sep-22 09:35 319 1 gusting 2 7.1
2020-Sep-22 09:30 320 1 gusting 1 7.1
2020-Sep-22 09:25 315 1 gusting 2 7.1
2020-Sep-22 09:20 335 1 gusting 1 7.0
2020-Sep-22 09:15 357 1 gusting 2 6.7
2020-Sep-22 09:10 354 1 gusting 2 6.6
2020-Sep-22 09:05 355 1 gusting 2 6.8
2020-Sep-22 09:00 349 1 gusting 2 7.1
2020-Sep-22 08:55 329 2 gusting 3 7.3
2020-Sep-22 08:50 322 2 gusting 3 7.4
2020-Sep-22 08:45 323 1 gusting 2 7.5
2020-Sep-22 08:40 327 2 gusting 2 7.4
2020-Sep-22 08:35 333 2 gusting 3 7.4
2020-Sep-22 08:30 338 2 gusting 3 7.5
2020-Sep-22 08:25 335 2 gusting 3 7.3
2020-Sep-22 08:20 343 1 gusting 2 7.2
2020-Sep-22 08:15 357 2 gusting 2 7.0
2020-Sep-22 08:10 358 2 gusting 3 6.5
2020-Sep-22 08:05 001 2 gusting 3 6.1
2020-Sep-22 08:00 039 0 gusting 1 5.9
2020-Sep-22 07:55 327 0 gusting 0 5.6
2020-Sep-22 07:50 253 0 gusting 0 5.2
2020-Sep-22 07:45 261 0 gusting 0 5.5
2020-Sep-22 07:40 5.6
2020-Sep-22 07:35 144 0 gusting 1 5.8
2020-Sep-22 07:30 144 1 gusting 1 5.6
2020-Sep-22 07:25 151 0 gusting 1 5.6
2020-Sep-22 07:20 5.9
2020-Sep-22 07:15 5.8
2020-Sep-22 07:10 5.9
2020-Sep-22 07:05 5.8
2020-Sep-22 07:00 225 0 gusting 1 6.0